Wetbulb
49.78 50.76 51.51 51.75 48.97 47.91 45.20 40.16 30.50 40.35 44.85 33.91 34.81 32.60 35.58 37.51 35.85 37.31 34.91 35.53 33.73 32.77 32.29 30.49 30.00 29.38 31.63 36.06 35.98 30.03 33.78 30.31 25.37 28.50 34.54 36.22 34.63 32.15 32.25 25.55 24.96 28.78 27.54 27.17
49.32 50.34 51.08 50.63 48.20 48.49 42.97 35.31 34.05 42.38 41.85 29.91 31.43 35.67 34.73 36.18 34.68 35.07 34.54 33.40 34.48 33.94 31.29 28.42 31.26 30.40 35.01 36.56 34.82 32.07 34.55 29.20 23.67 25.78 31.01 34.90 31.39 32.67 33.02 32.26 31.13 26.62 24.07 26.61
49.31 49.92 50.88 49.57 47.93 48.94 42.36 36.74 30.51 34.25 36.57 39.26 35.55 33.64 33.38 31.95 36.73 35.57 35.54 33.13 34.32 32.48 31.33 32.96 28.92 29.64 33.29 35.86 35.36 35.55 36.32 29.97 25.66 24.65 27.20 30.73 27.23 30.33 32.18 30.21 26.78 28.01 29.01 25.72
49.18 49.84 50.44 48.50 48.38 48.21 42.15 39.55 33.92 37.06 30.48 32.58 35.60 36.08 34.66 31.70 30.51 34.74 35.12 31.28 33.09 32.56 28.18 29.09 27.60 31.05 31.78 33.41 34.80 35.44 34.29 26.15 28.97 29.02 30.54 31.05 29.78 29.11 29.87 27.07 27.87 24.94 27.44 24.38
49.03 49.63 49.98 47.75 48.59 47.56 41.40 36.28 35.60 38.06 36.23 36.34 34.86 34.70 32.52 31.28 31.13 31.50 31.12 32.06 33.61 33.65 29.22 30.30 28.04 31.11 31.40 31.49 34.50 32.88 34.36 26.88 29.22 26.35 31.58 30.93 27.83 27.29 29.31 27.10 25.07 26.11 25.50 22.38
48.93 49.73 49.25 47.74 47.77 46.65 40.24 40.84 43.84 40.85 34.76 34.91 33.39 33.58 32.49 32.39 33.96 34.31 36.09 35.24 33.04 30.75 33.19 36.08 36.32 37.57 36.50 36.07 33.57 32.30 32.17 29.29 28.09 24.78 28.23 28.08 24.07 24.90 25.75 25.95 27.46 27.36 27.05 25.20
49.42 49.45 47.47 47.40 46.78 45.05 42.23 43.03 43.37 38.60 30.63 33.79 32.80 33.52 34.15 33.49 35.07 33.57 35.27 36.47 34.14 36.79 40.85 39.87 38.68 37.68 36.71 35.90 34.80 35.85 31.63 29.95 30.50 26.65 27.43 20.87 26.00 30.21 29.25 26.17 26.37 28.57 27.26 27.46
48.03 47.14 46.91 46.17 44.81 44.45 42.07 42.83 42.32 37.27 30.63 33.13 33.19 33.92 34.24 35.95 36.05 33.96 34.80 36.32 39.04 41.31 38.11 33.06 29.99 30.06 29.41 30.74 33.31 34.03 33.95 31.74 28.45 25.79 25.65 25.32 26.95 28.14 27.84 26.52 23.76 27.85 27.96 28.24
46.65 45.94 45.87 45.75 44.24 44.30 43.54 41.62 44.77 41.03 33.71 32.39 37.09 35.24 35.86 33.24 33.44 33.23 34.43 38.31 41.36 39.93 36.51 31.61 27.30 25.39 28.35 28.76 30.22 34.30 34.72 33.22 29.75 28.52 23.57 20.60 27.23 28.70 31.35 31.59 24.48 27.95 28.97 29.15
45.46 45.75 46.17 46.08 44.45 43.62 43.69 40.96 42.86 42.98 36.37 37.56 39.01 35.23 34.38 37.61 35.73 33.29 34.48 35.58 36.10 38.66 34.06 30.11 29.29 28.39 32.60 27.28 26.87 27.93 30.22 30.73 26.70 27.76 27.12 26.06 27.04 28.63 31.96 23.87 24.59 27.87 29.68 29.80
45.37 45.35 46.19 45.84 45.04 43.74 44.28 40.55 42.36 42.91 38.43 37.10 38.90 38.53 36.15 36.06 37.07 32.49 35.29 34.74 34.41 33.98 31.36 32.58 31.80 29.12 30.51 29.55 29.59 27.74 27.51 27.53 27.74 28.58 26.47 22.34 28.25 29.72 27.15 27.39 28.50 28.08 28.18 27.50
45.40 45.64 45.35 44.88 43.92 42.74 45.27 39.98 42.61 45.73 40.09 35.94 40.35 39.73 40.04 39.88 39.65 38.28 37.48 35.74 35.85 38.22 35.89 35.73 33.53 28.30 29.61 29.10 25.86 30.57 26.23 28.72 29.12 25.70 25.06 26.94 29.09 29.00 31.56 31.51 28.89 28.71 27.59 26.53
45.17 45.31 45.42 45.00 44.20 44.05 44.73 42.24 43.70 43.24 38.80 37.11 37.96 36.63 41.54 43.76 42.84 44.28 37.51 39.23 38.74 37.91 41.45 36.21 34.31 28.76 33.32 27.97 29.84 27.90 28.16 29.59 26.35 26.66 25.32 25.92 27.63 29.18 30.64 30.97 28.94 28.82 27.88 26.26
45.26 45.12 44.98 44.81 44.56 44.37 45.28 42.09 42.78 43.31 39.29 33.08 34.06 41.61 39.68 43.01 44.28 43.43 43.66 41.25 41.17 41.70 42.06 37.30 34.30 30.51 36.19 30.88 31.46 30.86 30.64 29.76 26.41 23.85 25.36 26.64 26.91 27.97 28.44 28.06 27.93 26.77 26.80 26.13
45.19 45.14 44.96 44.78 44.87 44.73 45.09 44.86 43.73 43.21 40.24 32.72 34.29 40.27 40.78 42.74 43.26 42.09 42.83 41.74 40.62 39.66 37.88 35.60 31.94 33.86 34.11 35.30 33.25 30.35 31.37 29.22 27.50 28.93 28.73 29.33 27.22 27.67 28.61 26.80 26.10 26.23 25.58 24.35
44.54 44.48 44.19 43.24 41.66 41.32 44.48 38.37 44.08 43.95 45.09 36.74 31.47 38.43 38.37 40.85 42.31 41.64 40.99 40.86 40.51 41.58 40.24 35.56 36.02 37.68 36.05 31.39 32.04 29.05 29.94 31.38 31.37 28.85 30.86 30.31 28.71 28.39 29.77 27.74 27.06 27.70 27.29 26.71
44.50 44.52 44.37 44.51 44.29 44.78 39.34 37.48 42.43 42.40 46.43 37.90 31.91 32.38 38.56 40.46 40.60 41.41 40.71 41.33 40.58 40.77 39.10 38.35 36.82 36.78 36.43 34.86 31.17 28.31 29.04 29.69 30.38 31.11 29.66 25.39 27.58 25.82 28.69 28.38 28.02 28.48 27.76 27.64
43.69 43.12 43.05 43.67 44.43 43.93 40.37 42.80 42.36 43.54 40.87 39.62 31.32 30.40 35.03 40.21 36.64 36.16 41.48 39.30 40.45 38.53 38.09 38.83 37.54 36.76 36.95 30.27 27.66 28.24 28.92 29.05 29.35 30.05 31.30 30.03 30.18 28.91 28.20 29.08 28.07 26.00 25.03 24.50
41.78 41.42 42.66 44.01 41.29 39.21 40.79 42.42 41.87 44.80 41.23 33.80 34.19 29.47 28.44 39.70 37.54 39.49 39.17 40.37 34.73 38.98 36.17 36.37 36.32 34.46 30.55 31.34 28.14 27.79 28.27 29.03 28.67 29.25 30.32 29.69 28.10 27.32 27.33 27.22 26.86 25.73 23.90 23.44
42.01 42.54 38.63 32.48 39.35 41.81 42.18 41.72 38.24 37.80 38.39 38.56 32.96 37.09 30.74 37.94 37.30 36.08 36.46 38.15 34.37 30.72 34.54 38.04 33.62 33.29 31.69 31.69 32.45 31.75 30.96 31.50 30.34 26.79 25.59 27.13 26.27 26.34 26.60 26.75 27.63 26.23 24.38 23.63
41.01 37.07 35.30 41.78 42.57 41.64 37.58 31.99 31.62 33.87 30.75 35.56 34.61 34.09 33.25 39.74 34.25 33.58 37.95 33.63 34.14 27.69 31.02 30.44 30.26 30.86 30.85 32.52 32.32 32.66 32.53 31.27 31.73 31.67 30.78 30.34 29.19 27.36 26.29 26.10 26.01 25.15 23.77 22.26
40.11 41.07 42.52 42.13 37.51 33.57 29.45 27.36 29.50 30.41 28.09 33.07 33.16 34.58 37.16 38.27 40.93 36.42 35.46 30.20 32.22 24.72 33.42 30.14 27.66 31.62 31.67 32.49 32.20 32.38 32.71 31.03 30.38 31.38 30.09 30.09 29.00 28.37 27.07 25.56 24.02 22.88 21.77 18.45
42.42 38.22 34.07 33.69 30.84 25.99 24.74 21.51 25.89 28.01 31.97 33.75 34.78 33.41 37.79 37.73 39.01 34.33 32.69 27.39 27.95 34.58 28.09 27.93 31.55 31.06 31.22 32.16 32.49 31.66 32.20 31.56 30.51 29.69 29.45 28.78 27.79 27.59 25.70 23.31 21.01 18.28 16.74 15.66
34.34 31.13 25.16 26.78 25.32 27.53 28.60 29.69 31.11 31.73 34.34 35.16 36.68 34.06 35.64 36.21 32.87 32.24 27.40 30.03 31.18 25.52 23.32 24.45 33.50 30.55 30.94 31.76 31.95 30.67 29.95 29.80 29.12 27.98 27.28 25.18 22.70 21.52 20.73 18.78 17.44 14.74 13.09 13.28
32.20 32.25 24.83 27.08 30.59 32.10 31.94 32.35 33.12 32.87 36.91 37.08 35.33 34.76 35.91 31.79 29.52 31.28 28.78 24.51 23.02 26.74 28.44 33.35 33.09 31.29 30.91 30.46 31.16 30.90 29.08 27.52 27.05 26.33 23.73 21.42 18.85 17.79 15.84 15.41 16.49 15.20 12.12 12.46
33.12 31.85 29.74 31.81 32.50 31.59 32.68 33.41 33.04 37.19 37.80 38.08 37.13 31.19 28.26 26.09 29.50 25.81 23.17 23.89 23.95 30.73 33.67 33.00 30.94 29.23 30.45 30.09 29.88 29.43 28.70 27.91 26.69 25.18 22.84 20.47 17.91 16.59 15.97 14.84 14.52 13.39 13.76 12.91
30.49 30.12 32.32 32.86 33.22 31.96 32.86 35.58 35.84 38.69 37.39 31.62 32.96 27.17 24.78 29.65 26.12 23.49 30.36 30.02 33.09 32.32 31.70 33.32 30.91 29.54 29.63 28.98 27.48 25.87 25.33 24.78 23.73 21.80 20.94 19.66 18.15 14.37 14.56 14.49 14.56 16.06 16.19 16.39
MSLP
1004.39 1004.93 1005.98 1006.72 1007.71 1008.35 1009.40 1010.88 1013.48 1014.96 1015.13 1015.40 1014.86 1012.97 1011.85 1011.48 1011.23 1011.62 1011.46 1011.63 1011.88 1011.96 1012.71 1013.25 1013.61 1013.83 1014.17 1014.81 1015.07 1015.13 1015.52 1015.60 1014.57 1013.83 1013.63 1013.84 1013.38 1013.22 1013.30 1013.39 1012.57 1012.66 1013.45 1014.67
1002.80 1003.62 1004.47 1005.49 1006.66 1006.57 1008.78 1011.02 1013.69 1015.17 1014.87 1013.49 1012.71 1012.09 1011.74 1011.35 1011.32 1011.50 1011.71 1012.05 1012.42 1013.05 1013.35 1013.68 1013.88 1014.34 1015.11 1015.39 1015.45 1015.39 1015.85 1015.51 1014.67 1014.06 1014.79 1014.05 1014.05 1014.02 1013.95 1014.38 1014.56 1013.87 1014.74 1015.86
1001.09 1002.09 1002.91 1004.09 1005.24 1005.87 1007.25 1010.37 1012.79 1014.31 1014.04 1012.61 1011.20 1011.08 1011.10 1011.25 1011.60 1011.77 1012.02 1012.59 1013.04 1013.36 1013.47 1013.92 1014.25 1014.87 1015.53 1015.82 1015.91 1016.22 1016.32 1015.89 1015.21 1013.49 1013.23 1013.74 1014.21 1014.64 1014.97 1015.33 1015.00 1014.07 1014.71 1016.77
999.18 1000.41 1001.31 1002.81 1004.14 1004.89 1005.65 1008.24 1008.67 1008.74 1010.79 1011.27 1010.42 1010.40 1010.43 1010.66 1011.34 1011.93 1012.29 1012.91 1012.81 1012.90 1013.31 1013.88 1014.31 1014.75 1015.57 1016.06 1016.29 1016.28 1016.43 1015.82 1015.39 1015.06 1014.57 1014.35 1014.64 1015.06 1015.33 1015.83 1015.93 1016.03 1016.15 1017.64
997.25 998.66 1000.04 1001.49 1003.12 1004.09 1005.07 1006.32 1006.17 1007.73 1008.55 1009.69 1009.86 1009.85 1009.86 1010.34 1011.35 1011.69 1012.21 1012.27 1012.70 1012.97 1013.06 1013.16 1013.51 1014.31 1014.96 1015.22 1015.74 1016.05 1016.25 1015.88 1015.55 1014.92 1014.15 1014.20 1015.08 1015.91 1016.01 1016.61 1016.91 1017.03 1017.43 1018.95
995.50 996.66 998.33 1000.53 1001.99 1003.00 1004.27 1005.11 1004.72 1005.50 1007.54 1008.47 1009.17 1008.91 1009.44 1010.27 1010.90 1012.15 1011.84 1012.16 1012.73 1013.09 1013.07 1013.35 1013.75 1014.12 1014.58 1014.91 1015.32 1015.77 1016.14 1016.11 1015.47 1014.18 1014.21 1014.73 1015.85 1016.44 1016.71 1017.21 1017.41 1017.55 1017.52 1019.43
993.85 995.31 997.87 1000.07 1001.66 1002.13 1002.31 1003.54 1003.53 1005.03 1006.94 1007.27 1007.63 1008.44 1009.15 1010.08 1010.95 1011.71 1012.23 1012.59 1012.71 1013.29 1013.62 1013.99 1014.29 1014.47 1014.64 1014.87 1015.21 1015.46 1015.79 1015.87 1015.29 1014.31 1014.78 1014.68 1016.06 1016.89 1017.09 1017.55 1018.23 1018.49 1018.92 1019.83
993.09 995.68 998.23 1000.24 1001.51 1002.12 1002.51 1003.40 1003.09 1004.61 1006.23 1007.25 1007.94 1008.39 1009.29 1010.25 1011.33 1011.90 1012.48 1012.96 1013.05 1013.44 1013.49 1013.51 1013.62 1014.14 1014.52 1014.23 1014.68 1015.03 1015.83 1015.75 1014.71 1013.93 1013.80 1015.19 1016.10 1016.77 1017.00 1017.23 1018.67 1019.17 1019.33 1020.27
994.29 996.75 998.53 1000.11 1001.33 1001.83 1002.73 1003.89 1003.50 1004.07 1006.12 1007.45 1007.60 1008.06 1009.04 1009.45 1010.47 1011.89 1012.71 1013.45 1013.55 1013.47 1013.05 1013.14 1012.66 1012.32 1012.52 1012.95 1013.94 1014.72 1015.00 1015.39 1015.02 1013.86 1013.38 1014.05 1015.33 1016.69 1017.38 1017.64 1018.37 1019.57 1019.86 1020.35
995.50 997.64 999.34 1000.70 1001.25 1002.41 1002.65 1003.89 1004.16 1004.31 1006.18 1007.40 1007.43 1007.88 1008.53 1009.16 1009.95 1010.73 1012.09 1012.93 1013.35 1013.32 1012.62 1012.39 1011.84 1011.61 1012.11 1012.25 1012.90 1013.87 1014.17 1014.44 1014.29 1013.89 1013.81 1015.05 1016.69 1017.42 1017.81 1018.41 1019.70 1020.11 1020.43 1021.08
997.49 998.57 999.73 1000.33 1000.94 1001.69 1002.55 1004.79 1004.97 1004.34 1006.27 1008.59 1008.67 1008.86 1009.11 1009.60 1009.50 1010.13 1011.67 1012.45 1012.75 1012.63 1012.01 1011.30 1011.63 1012.23 1012.57 1012.71 1013.37 1013.83 1014.18 1014.18 1014.05 1014.63 1014.99 1016.51 1017.90 1018.11 1018.34 1019.52 1020.27 1021.03 1021.79 1022.71
998.31 999.24 1000.01 1000.93 1001.91 1002.42 1002.29 1003.99 1004.89 1004.56 1006.12 1009.16 1009.71 1010.15 1010.24 1009.82 1009.93 1010.23 1011.29 1011.27 1011.40 1011.47 1011.20 1011.52 1012.13 1012.62 1012.97 1013.01 1013.18 1014.51 1015.11 1015.50 1015.04 1016.36 1016.87 1018.33 1019.02 1019.11 1019.62 1020.17 1020.94 1021.99 1022.82 1023.97
999.71 1000.40 1001.11 1001.80 1002.25 1002.36 1002.50 1004.48 1004.94 1005.25 1007.26 1008.85 1009.43 1010.56 1010.85 1010.68 1010.79 1010.74 1010.45 1011.37 1011.53 1011.74 1011.79 1011.87 1012.23 1012.55 1012.93 1012.97 1013.47 1014.61 1015.80 1016.57 1016.69 1017.21 1018.55 1019.27 1020.02 1020.49 1020.65 1021.23 1022.14 1023.06 1024.00 1024.77
1000.55 1001.12 1001.60 1002.06 1002.48 1003.01 1003.26 1004.60 1005.86 1005.31 1006.61 1008.51 1011.04 1011.31 1011.22 1011.53 1011.00 1010.93 1010.81 1011.15 1011.89 1011.81 1011.79 1011.74 1012.12 1012.66 1013.15 1013.66 1013.99 1014.64 1015.99 1016.77 1017.18 1018.23 1019.15 1019.91 1020.76 1021.35 1021.78 1022.47 1023.25 1024.03 1024.83 1025.41
1001.51 1001.95 1002.36 1002.77 1003.31 1003.91 1004.36 1005.40 1006.27 1006.44 1006.16 1008.12 1010.23 1011.11 1011.79 1011.62 1011.43 1011.35 1011.35 1011.43 1011.49 1011.46 1011.53 1011.82 1012.61 1013.30 1013.59 1014.20 1014.51 1015.29 1016.25 1016.83 1017.11 1017.05 1018.19 1019.06 1020.56 1021.80 1022.43 1023.06 1023.83 1024.57 1025.09 1025.75
1002.67 1003.14 1003.50 1003.98 1004.19 1004.23 1004.21 1005.92 1006.99 1007.19 1006.62 1007.84 1009.77 1011.96 1011.97 1011.95 1011.81 1011.73 1011.75 1011.76 1011.74 1011.54 1011.37 1012.12 1013.00 1013.37 1013.66 1014.05 1014.57 1016.34 1017.12 1017.62 1017.85 1018.02 1018.97 1019.61 1021.00 1022.08 1022.72 1023.31 1024.07 1024.70 1025.22 1025.81
1003.81 1004.13 1004.21 1004.43 1004.43 1004.78 1006.35 1007.67 1008.03 1007.72 1007.19 1008.09 1009.91 1011.18 1012.11 1012.14 1012.03 1012.10 1012.04 1012.19 1012.01 1011.75 1011.88 1012.03 1012.61 1013.27 1013.78 1014.26 1015.06 1016.75 1017.64 1018.19 1018.52 1018.95 1019.56 1020.83 1021.63 1022.15 1022.93 1023.65 1024.39 1025.01 1025.47 1025.95
1004.81 1004.95 1005.20 1005.51 1005.71 1006.42 1007.31 1008.23 1008.12 1007.88 1007.67 1008.37 1009.76 1011.21 1011.73 1012.24 1011.74 1011.87 1012.41 1012.01 1012.03 1012.25 1012.15 1012.49 1012.45 1013.42 1013.80 1014.51 1016.24 1017.24 1018.04 1018.68 1019.05 1019.38 1019.50 1020.15 1021.22 1022.38 1023.11 1023.81 1024.46 1025.03 1025.64 1026.38
1005.65 1005.65 1005.81 1005.96 1006.85 1007.83 1008.69 1008.97 1008.60 1008.18 1008.49 1009.02 1009.90 1010.47 1011.23 1012.06 1011.97 1012.18 1012.35 1012.19 1012.03 1012.69 1012.19 1012.39 1013.06 1013.16 1013.81 1014.89 1016.10 1017.22 1018.03 1018.35 1018.99 1019.54 1019.81 1020.58 1021.47 1022.39 1023.17 1023.81 1024.42 1025.07 1025.91 1026.66
1005.97 1006.09 1006.52 1008.25 1008.99 1009.33 1008.98 1008.92 1008.60 1008.88 1009.48 1009.83 1010.46 1010.92 1011.29 1011.64 1011.81 1012.02 1012.15 1012.27 1012.09 1012.01 1012.59 1012.91 1012.86 1013.23 1014.59 1015.33 1016.17 1017.10 1017.97 1018.34 1018.98 1019.29 1020.08 1020.69 1021.56 1022.31 1023.14 1023.94 1024.59 1025.47 1026.30 1027.13
1006.66 1007.42 1008.30 1009.08 1009.33 1009.06 1009.15 1009.71 1009.89 1010.05 1010.28 1010.59 1011.32 1011.25 1011.26 1012.14 1011.59 1011.80 1012.42 1012.30 1012.54 1012.26 1012.86 1013.01 1012.90 1013.27 1014.59 1015.66 1016.42 1017.26 1018.03 1018.64 1019.02 1019.26 1019.95 1020.74 1021.54 1022.37 1023.34 1024.30 1025.37 1026.14 1026.98 1027.77
1007.90 1007.73 1008.81 1009.04 1009.16 1009.29 1009.66 1010.63 1011.00 1010.50 1010.80 1011.43 1011.33 1011.61 1011.51 1012.20 1012.15 1011.88 1012.71 1012.55 1012.95 1012.76 1013.52 1013.30 1012.92 1014.00 1015.03 1015.89 1016.69 1017.55 1018.26 1018.95 1019.35 1019.77 1020.35 1021.19 1022.08 1022.93 1023.87 1025.00 1026.11 1026.95 1027.72 1028.85
1008.00 1008.09 1008.90 1009.15 1010.01 1010.00 1010.27 1010.89 1011.27 1011.15 1011.31 1011.54 1011.61 1011.90 1011.91 1012.43 1012.27 1012.63 1012.78 1012.98 1013.21 1013.59 1013.51 1012.98 1013.51 1014.71 1015.67 1016.35 1017.21 1018.07 1018.69 1019.33 1019.90 1020.59 1021.30 1021.97 1022.82 1023.67 1024.71 1025.93 1027.01 1027.97 1028.72 1029.53
1008.62 1009.22 1010.10 1010.43 1010.85 1011.05 1011.19 1011.19 1011.32 1011.97 1011.65 1011.57 1011.59 1012.11 1012.05 1012.67 1012.70 1013.21 1013.17 1013.95 1013.76 1013.50 1013.36 1013.27 1014.06 1015.25 1016.29 1017.17 1017.86 1018.53 1019.26 1020.09 1020.71 1021.46 1022.22 1023.13 1024.13 1025.13 1026.13 1026.97 1027.85 1028.57 1029.38 1030.10
1009.79 1010.03 1010.97 1011.49 1011.92 1011.88 1012.06 1012.12 1012.09 1012.47 1012.24 1011.85 1012.03 1012.41 1012.53 1012.98 1013.24 1013.44 1013.71 1013.99 1013.69 1013.53 1013.50 1014.16 1015.13 1015.98 1016.79 1017.63 1018.39 1019.11 1019.93 1020.76 1021.51 1022.32 1023.19 1024.11 1025.01 1025.89 1026.94 1027.89 1028.56 1029.21 1029.81 1030.37
1010.89 1011.50 1011.95 1012.23 1011.96 1012.27 1012.38 1012.49 1012.64 1012.77 1012.46 1012.30 1012.30 1012.69 1013.10 1013.49 1013.43 1013.50 1013.54 1013.60 1013.55 1013.91 1014.61 1015.33 1016.11 1016.84 1017.45 1018.15 1018.87 1019.61 1020.41 1021.20 1022.07 1022.97 1023.88 1024.76 1025.60 1026.38 1027.32 1028.36 1028.99 1029.48 1029.79 1030.33
1012.09 1012.74 1012.89 1012.81 1012.73 1012.90 1013.09 1013.06 1013.09 1013.00 1012.66 1012.68 1012.60 1012.70 1013.28 1013.75 1013.67 1013.65 1013.79 1013.83 1014.43 1015.04 1015.59 1016.11 1016.81 1017.41 1018.07 1018.79 1019.58 1020.36 1021.03 1021.79 1022.67 1023.56 1024.48 1025.33 1026.27 1027.20 1027.76 1028.25 1029.02 1029.34 1029.83 1030.21
Wind_Speed
26 25 23 24 38 34 10 5 5 9 8 7 4 9 9 7 12 7 3 3 3 8 9 7 7 6 3 6 9 5 5 4 7 9 4 9 12 10 12 10 7 7 6 5
29 27 28 35 40 34 7 6 5 5 7 7 12 9 10 10 12 12 8 7 3 3 8 6 8 3 2 7 9 6 7 7 5 6 5 7 5 9 10 7 8 14 10 0
32 30 30 43 42 29 6 6 8 3 4 7 16 16 18 13 6 9 5 5 5 8 7 6 5 8 6 5 6 3 4 7 9 9 8 4 5 6 9 10 8 12 9 6
35 33 32 45 43 29 8 6 7 13 14 15 15 18 18 16 10 5 7 4 9 10 7 9 8 9 5 5 7 6 4 8 9 14 16 13 12 12 11 7 9 10 3 6
35 35 38 47 41 27 6 7 8 14 15 19 17 20 17 20 8 10 9 9 13 11 8 10 9 10 8 6 10 10 7 8 3 10 14 15 5 4 8 4 3 5 12 9
35 35 47 47 38 20 5 3 11 11 17 20 17 18 17 15 12 5 6 13 9 11 10 5 2 6 3 2 7 10 6 6 4 2 1 9 7 2 4 4 6 2 3 8
34 44 46 41 31 8 6 9 11 6 13 17 18 23 13 16 18 8 9 11 9 6 7 4 2 6 9 11 12 9 3 6 4 2 7 6 6 6 8 8 6 8 12 10
46 46 39 31 21 13 8 5 6 6 9 13 16 18 17 15 12 8 8 7 4 8 4 3 5 5 5 10 14 15 10 6 4 5 10 5 9 6 4 2 5 1 6 8
43 40 33 25 19 19 7 3 2 8 12 14 22 20 21 15 9 8 5 5 6 5 3 4 6 6 1 7 6 10 9 12 7 6 5 4 7 5 2 1 5 3 4 6
40 34 26 22 20 13 7 4 4 7 7 3 20 12 15 8 10 6 8 8 7 5 6 6 5 3 1 5 6 6 5 5 14 10 5 6 4 1 4 5 6 5 5 6
32 24 19 18 15 16 5 5 1 4 6 7 4 5 8 7 9 8 9 7 4 5 7 4 4 2 2 2 2 0 3 4 4 4 4 5 4 5 4 8 9 10 10 10
21 19 18 17 13 11 3 6 4 8 8 7 8 12 9 5 6 7 7 3 7 3 3 2 3 3 2 3 4 2 3 4 1 5 5 5 6 10 11 9 13 12 13 11
22 20 18 16 13 11 11 8 6 10 9 10 6 10 9 9 6 4 4 2 4 5 2 5 2 3 3 4 2 4 4 3 1 6 5 7 8 8 10 11 13 12 12 11
23 21 20 20 20 17 12 7 2 6 7 7 6 2 6 4 7 8 5 9 5 6 3 2 2 2 2 3 3 1 2 7 7 5 6 8 6 8 12 13 13 13 11 11
26 25 24 25 25 23 15 9 7 5 3 7 9 10 5 5 7 10 9 7 6 4 3 3 2 2 3 2 2 4 4 3 4 2 12 1 13 12 14 14 13 12 13 12
20 18 16 13 10 4 5 6 6 7 7 7 6 3 6 6 7 8 8 5 3 1 1 4 2 2 3 3 2 4 4 3 2 5 8 9 15 14 13 14 13 12 12 12
22 23 24 22 22 11 7 5 3 5 2 5 6 6 4 2 3 3 3 3 3 2 2 1 3 3 2 2 2 8 6 6 11 14 17 14 15 10 13 14 13 13 12 11
18 18 18 15 17 12 8 8 7 2 5 4 5 5 7 1 4 4 1 2 2 2 2 3 1 3 2 2 6 9 10 11 13 12 3 13 13 15 14 14 13 13 12 11
12 12 9 6 8 5 3 8 3 5 5 4 3 8 5 3 3 2 3 1 2 1 2 2 2 2 2 3 13 13 15 8 11 8 12 16 17 16 14 14 13 12 12 12
8 5 5 5 3 5 5 1 4 5 4 3 4 1 6 3 3 3 3 0 2 3 3 2 2 0 5 5 10 12 12 11 14 16 16 17 16 15 15 13 11 11 11 12
4 4 4 3 2 1 3 4 4 2 4 3 3 4 8 1 2 4 1 2 0 2 4 2 2 2 5 8 11 13 9 10 10 7 13 13 15 15 14 13 11 12 12 11
4 7 4 2 2 3 5 3 2 2 4 3 6 5 4 3 1 2 2 2 2 2 1 3 2 4 7 12 12 13 10 11 8 10 14 13 14 13 13 13 12 11 11 11
2 3 4 3 4 5 3 4 3 4 4 4 5 5 2 3 1 3 1 2 2 2 2 2 3 5 8 10 11 11 12 11 12 13 13 14 13 12 11 12 9 11 10 9
4 4 6 4 4 4 3 3 4 4 4 7 6 4 2 1 2 1 2 2 1 3 3 1 2 6 9 9 9 12 12 10 11 13 13 13 12 11 10 10 10 10 10 9
4 3 5 4 1 2 2 3 4 3 4 4 5 4 2 3 3 1 2 2 3 3 1 2 3 7 10 10 10 10 11 10 10 11 11 11 11 11 11 9 9 9 10 9
4 6 4 1 1 6 4 4 4 1 2 2 3 3 3 2 1 2 2 2 1 2 1 2 3 7 8 9 9 9 9 10 10 9 10 11 11 12 12 10 8 8 10 9
4 4 3 3 4 5 3 2 3 1 1 2 0 2 3 3 2 2 2 1 2 2 2 1 3 8 9 9 8 8 9 10 10 11 10 10 10 11 11 11 8 8 8 6
Wind_Direction
223 219 214 192 161 149 112 132 121 187 171 149 200 209 197 196 172 182 144 187 158 187 178 196 214 230 212 178 159 188 184 250 261 259 307 276 264 237 224 238 222 250 284 299
219 212 208 174 164 157 132 90 105 178 201 185 190 185 194 203 181 189 179 166 158 156 187 219 218 184 126 158 182 197 175 207 247 168 229 190 194 223 245 260 289 264 272 40
212 207 207 171 167 163 119 136 137 136 217 251 188 182 190 171 192 171 155 125 144 168 194 197 194 207 175 187 216 169 165 249 248 280 16 15 241 213 225 251 263 278 247 129
204 202 197 169 172 160 112 178 181 160 180 201 190 186 188 179 165 164 154 149 214 189 190 195 212 195 164 198 181 196 221 254 245 263 278 269 258 263 254 236 276 271 100 97
200 198 187 172 171 162 92 142 156 170 164 176 186 189 191 183 154 153 184 226 195 195 196 201 195 180 187 190 188 205 210 254 282 270 257 245 214 241 225 199 298 76 117 96
204 204 176 168 165 167 117 225 134 154 160 174 180 187 173 178 120 191 220 195 167 198 215 200 120 185 190 198 192 194 201 223 229 316 55 136 180 121 146 133 42 294 212 106
202 166 159 164 163 159 118 164 130 141 163 178 183 177 168 177 193 138 151 164 182 131 119 115 191 230 240 231 223 232 220 210 246 269 197 229 91 113 104 102 60 90 109 126
148 149 148 145 132 133 128 148 137 117 140 166 171 173 184 160 141 121 153 159 99 149 174 185 192 174 196 223 229 227 213 240 254 254 214 98 174 177 196 299 107 54 137 141
134 132 126 121 123 113 107 97 94 129 129 187 176 169 163 156 141 139 134 114 143 173 177 185 223 190 209 161 153 212 202 221 233 206 247 224 85 131 128 248 151 139 198 168
117 122 129 128 123 119 131 102 54 117 105 98 158 164 156 154 162 142 141 157 168 212 188 201 213 182 308 192 190 177 191 191 216 227 258 107 78 138 176 247 92 124 152 131
122 125 126 122 121 116 69 103 346 110 88 98 119 128 142 143 165 161 135 149 188 184 212 225 144 205 166 211 66 219 235 229 191 229 217 191 26 156 251 107 109 114 111 112
110 110 111 116 133 149 134 86 69 68 79 88 81 78 55 45 80 131 172 39 146 150 206 164 121 163 201 180 184 124 199 327 3 344 43 84 50 78 118 130 126 123 120 124
114 114 116 118 117 97 100 103 105 95 104 96 84 70 59 61 52 5 160 170 123 166 351 143 144 151 197 194 131 132 128 175 93 193 118 105 101 99 107 117 120 119 119 122
101 102 100 97 91 88 92 88 44 92 103 97 97 138 65 22 75 81 72 109 110 116 186 122 114 130 251 175 94 229 40 169 140 83 127 120 106 118 122 116 117 118 116 123
91 91 93 96 98 101 91 83 46 38 92 121 115 105 53 77 86 85 92 113 139 155 159 140 106 114 172 134 198 154 184 146 208 95 157 71 141 142 137 133 132 132 131 125
81 82 87 100 107 112 89 65 48 27 106 120 102 110 117 109 105 90 82 76 78 74 68 100 125 84 251 201 194 122 136 106 348 134 121 118 133 141 146 135 138 139 135 134
88 86 82 81 77 62 49 68 53 353 48 99 117 119 114 118 130 93 96 72 71 354 110 123 127 162 235 227 222 145 137 120 124 123 117 119 148 147 142 136 137 139 132 129
88 82 78 76 95 107 59 32 21 6 89 75 106 104 148 241 138 122 9 124 179 47 75 162 128 163 218 221 132 140 133 133 139 146 90 139 134 141 143 143 144 142 139 134
81 75 64 56 36 53 67 335 334 55 48 97 108 154 135 169 110 97 151 279 122 107 152 113 252 170 223 107 159 162 156 161 153 136 131 138 145 147 149 153 153 152 147 140
69 46 45 64 45 314 273 18 40 36 43 48 83 75 120 175 188 115 148 253 132 188 85 141 241 311 104 149 157 158 161 150 149 138 151 153 154 158 160 164 160 157 150 144
42 58 60 90 316 204 41 69 43 49 86 65 73 114 132 90 156 109 336 116 203 204 101 245 185 217 136 160 150 154 144 158 169 165 156 161 159 158 158 155 156 150 150 143
63 93 111 126 33 64 76 58 93 46 91 119 139 110 79 102 296 133 161 116 208 113 128 238 231 90 133 157 152 156 153 152 153 153 152 153 155 155 151 150 153 146 131 127
68 67 65 7 6 66 57 124 109 126 137 152 148 116 70 148 127 76 136 161 92 131 201 253 51 116 154 155 152 146 147 143 138 138 140 140 140 140 146 142 128 134 128 131
51 46 61 28 47 64 51 73 82 74 119 132 120 88 60 80 83 40 134 63 237 192 238 215 101 162 157 151 155 150 151 140 139 138 134 133 133 131 127 133 139 136 140 137
60 28 56 55 59 85 84 79 98 74 102 120 112 87 62 59 103 50 134 142 189 241 356 53 67 161 157 154 154 151 150 146 142 141 140 135 134 134 126 129 140 135 133 138
51 44 95 47 109 84 81 82 90 98 94 118 85 116 91 77 91 164 145 182 169 63 45 62 135 164 157 153 151 151 148 148 142 139 141 139 141 143 135 135 140 143 144 149
45 61 6 19 42 56 60 42 63 27 18 63 98 98 68 126 95 151 223 290 21 32 55 45 140 167 159 142 134 134 134 139 140 135 138 133 126 129 140 143 149 152 150 158